Knox, IN

9:47 AM CDT on September 30, 2016 (GMT -0500)
Starke County

Weather History for KOXI - May, 2014

Change the Weather History Date:

Sunday, May 18, 2014

  Actual Average (KVPZ) Record (KVPZ)
Temperature  
Mean Temperature 51 °F 60 °F  
Max Temperature 65 °F 71 °F 90 °F (1998)
Min Temperature 37 °F 49 °F 35 °F (2002)
Degree Days  
Heating Degree Days 14 7  
Month to date heating degree days 156  
Since 1 July heating degree days 6215  
Cooling Degree Days 0 1  
Month to date cooling degree days 14  
Year to date cooling degree days 19  
Growing Degree Days 1 (Base 50)    
Moisture  
Dew Point 36 °F    
Average Humidity 56    
Maximum Humidity 88    
Minimum Humidity 32    
Precipitation  
Precipitation 0.00 in 0.13 in 0.11 in (1999)
Month to date precipitation 2.26  
Year to date precipitation 11.44  
Sea Level Pressure  
Sea Level Pressure 30.24 in    
Wind  
Wind Speed 5 mph (SSW)    
Max Wind Speed 10 mph    
Max Gust Speed 16 mph    
Visibility 10 miles    
Events      
T = Trace of Precipitation, MM = Missing Value Source: NWS Daily Summary

Daily Weather History Graph

Daily Weather History Graph

Search for Another Location

Airport or City:

Trip Planner

Search our weather history database for the weather conditions in past years. The results will help you decide how hot, cold, wet, or windy it might be!

Date:

Astronomy

May. 18, 2014 Rise Set
Actual Time 5:25 AM CDT 8:01 PM CDT
Civil Twilight 4:53 AM CDT 8:33 PM CDT
Nautical Twilight 4:13 AM CDT 9:13 PM CDT
Astronomical Twilight 3:28 AM CDT 9:58 PM CDT
Moon 11:48 PM CDT (5/18) 9:13 AM CDT (5/18)
Length of Visible Light 15h 40m
Length of Day
14h 36m
Waning Gibbous, 81% of the Moon is Illuminated
May 18
Waning Gibbous
May 21
Last Quarter
May 28
New
Jun 5
First Quarter
Jun 12
Full

Hourly Weather History & Observations

Time (CDT) Temp. Windchill Dew Point Humidity Pressure Visibility Wind Dir Wind Speed Gust Speed Precip Events Conditions
12:15 AM 43.2 °F 39.7 °F 35.6 °F 75% 30.21 in 10.0 mi SSW 5.8 mph - N/A   Clear
12:35 AM 43.2 °F 41.5 °F 35.6 °F 75% 30.21 in 10.0 mi SW 3.5 mph - N/A   Clear
12:55 AM 43.2 °F 41.5 °F 35.6 °F 75% 30.21 in 10.0 mi SSW 3.5 mph - N/A   Clear
1:15 AM 42.6 °F 40.9 °F 35.6 °F 76% 30.21 in 10.0 mi SW 3.5 mph - N/A   Clear
1:35 AM 42.4 °F 39.6 °F 35.6 °F 77% 30.21 in 10.0 mi SSW 4.6 mph - N/A   Clear
1:55 AM 42.1 °F 39.2 °F 35.2 °F 77% 30.21 in 10.0 mi SSW 4.6 mph - N/A   Clear
2:15 AM 41.9 °F 40.0 °F 35.1 °F 77% 30.21 in 10.0 mi SW 3.5 mph - N/A   Clear
2:35 AM 42.3 °F 40.5 °F 34.9 °F 75% 30.21 in 10.0 mi SSW 3.5 mph - N/A   Clear
2:55 AM 42.1 °F 40.2 °F 34.9 °F 76% 30.22 in 10.0 mi SW 3.5 mph - N/A   Clear
3:15 AM 42.1 °F 40.2 °F 34.9 °F 76% 30.22 in 10.0 mi SW 3.5 mph - N/A   Clear
3:35 AM 41.7 °F 39.8 °F 34.7 °F 76% 30.23 in 10.0 mi South 3.5 mph - N/A   Clear
3:55 AM 40.6 °F 38.6 °F 34.5 °F 79% 30.23 in 10.0 mi South 3.5 mph - N/A   Clear
4:15 AM 39.0 °F 36.8 °F 34.2 °F 83% 30.23 in 10.0 mi South 3.5 mph - N/A   Clear
4:35 AM 37.2 °F 34.7 °F 33.8 °F 87% 30.23 in 10.0 mi South 3.5 mph - N/A   Clear
4:55 AM 37.0 °F 34.5 °F 33.8 °F 88% 30.23 in 10.0 mi South 3.5 mph - N/A   Clear
5:15 AM 37.9 °F 35.5 °F 34.0 °F 86% 30.24 in 10.0 mi South 3.5 mph - N/A   Clear
5:35 AM 38.1 °F - 33.8 °F 84% 30.24 in 10.0 mi Calm Calm - N/A   Clear
5:55 AM 37.4 °F 34.9 °F 33.6 °F 86% 30.25 in 10.0 mi South 3.5 mph - N/A   Clear
6:15 AM 38.7 °F - 34.5 °F 85% 30.25 in 10.0 mi Calm Calm - N/A   Clear
6:35 AM 39.9 °F 37.8 °F 35.2 °F 83% 30.26 in 10.0 mi SSW 3.5 mph - N/A   Clear
6:55 AM 41.4 °F 39.4 °F 36.3 °F 82% 30.26 in 10.0 mi SSW 3.5 mph - N/A   Clear
7:15 AM 43.7 °F 41.1 °F 36.9 °F 77% 30.26 in 10.0 mi SW 4.6 mph - N/A   Clear
7:35 AM 46.0 °F 43.1 °F 37.6 °F 72% 30.27 in 10.0 mi SSW 5.8 mph - N/A   Scattered Clouds
7:55 AM 48.4 °F - 38.3 °F 68% 30.27 in 10.0 mi SSW 5.8 mph - N/A   Scattered Clouds
8:15 AM 50.5 °F - 38.8 °F 64% 30.27 in 10.0 mi SW 9.2 mph - N/A   Mostly Cloudy
8:35 AM 51.8 °F - 39.2 °F 62% 30.27 in 10.0 mi SW 6.9 mph - N/A   Mostly Cloudy
8:55 AM 52.7 °F - 39.0 °F 60% 30.28 in 10.0 mi WSW 8.1 mph - N/A   Overcast
9:15 AM 54.3 °F - 39.7 °F 58% 30.28 in 10.0 mi WSW 8.1 mph - N/A   Scattered Clouds
9:35 AM 56.1 °F - 39.0 °F 53% 30.28 in 10.0 mi SW 10.4 mph - N/A   Scattered Clouds
9:55 AM 57.2 °F - 38.7 °F 50% 30.28 in 10.0 mi SW 8.1 mph - N/A   Clear
10:15 AM 58.3 °F - 37.6 °F 46% 30.28 in 10.0 mi SW 8.1 mph - N/A   Clear
10:35 AM 59.2 °F - 35.8 °F 42% 30.28 in 10.0 mi SW 10.4 mph - N/A   Clear
10:55 AM 59.9 °F - 35.6 °F 40% 30.28 in 10.0 mi SW 8.1 mph - N/A   Clear
11:15 AM 60.3 °F - 36.0 °F 40% 30.28 in 10.0 mi WSW 8.1 mph - N/A   Mostly Cloudy
11:35 AM 60.8 °F - 35.2 °F 38% 30.27 in 10.0 mi South 8.1 mph - N/A   Scattered Clouds
11:55 AM 61.2 °F - 35.8 °F 39% 30.27 in 10.0 mi South 6.9 mph - N/A   Clear
12:15 PM 61.7 °F - 35.8 °F 38% 30.26 in 10.0 mi SW 10.4 mph - N/A   Clear
12:35 PM 61.9 °F - 36.1 °F 38% 30.26 in 10.0 mi SW 3.5 mph - N/A   Scattered Clouds
12:55 PM 62.2 °F - 35.1 °F 36% 30.25 in 10.0 mi West 5.8 mph - N/A   Clear
1:15 PM 62.6 °F - 35.6 °F 37% 30.25 in 10.0 mi West 9.2 mph - N/A   Clear
1:35 PM 63.0 °F - 36.0 °F 37% 30.24 in 10.0 mi West 9.2 mph 16.1 mph N/A   Scattered Clouds
1:55 PM 63.3 °F - 35.4 °F 35% 30.24 in 10.0 mi SW 5.8 mph - N/A   Clear
2:15 PM 63.5 °F - 34.7 °F 34% 30.23 in 10.0 mi West 3.5 mph - N/A   Clear
2:35 PM 63.9 °F - 35.4 °F 35% 30.23 in 10.0 mi SSW 9.2 mph - N/A   Scattered Clouds
2:55 PM 64.2 °F - 35.1 °F 34% 30.23 in 10.0 mi Calm Calm - N/A   Clear
3:15 PM 64.8 °F - 34.5 °F 33% 30.23 in 10.0 mi NW 3.5 mph - N/A   Scattered Clouds
3:35 PM 64.2 °F - 33.8 °F 32% 30.23 in 10.0 mi South 5.8 mph - N/A   Scattered Clouds
3:55 PM 65.3 °F - 34.7 °F 32% 30.22 in 10.0 mi South 6.9 mph - N/A   Scattered Clouds
4:15 PM 65.1 °F - 34.3 °F 32% 30.22 in 10.0 mi South 4.6 mph - N/A   Scattered Clouds
4:35 PM 65.3 °F - 35.2 °F 33% 30.22 in 10.0 mi SW 5.8 mph - N/A   Clear
4:55 PM 64.9 °F - 34.0 °F 32% 30.22 in 10.0 mi West 6.9 mph - N/A   Clear
5:15 PM 65.1 °F - 35.4 °F 33% 30.22 in 10.0 mi South 6.9 mph - N/A   Clear
5:35 PM 65.1 °F - 35.6 °F 33% 30.21 in 10.0 mi SSE 8.1 mph - N/A   Clear
5:55 PM 64.9 °F - 34.7 °F 33% 30.21 in 10.0 mi SW 6.9 mph - N/A   Scattered Clouds
6:15 PM 64.6 °F - 35.6 °F 34% 30.21 in 10.0 mi WSW 5.8 mph - N/A   Scattered Clouds
6:35 PM 64.2 °F - 34.5 °F 33% 30.20 in 10.0 mi West 5.8 mph - N/A   Scattered Clouds
6:55 PM 63.5 °F - 36.1 °F 36% 30.21 in 10.0 mi SW 5.8 mph - N/A   Clear
7:15 PM 63.0 °F - 37.2 °F 38% 30.21 in 10.0 mi SSW 4.6 mph - N/A   Clear
7:35 PM 61.7 °F - 38.1 °F 42% 30.21 in 10.0 mi SSW 5.8 mph - N/A   Clear
7:55 PM 60.3 °F - 39.9 °F 47% 30.21 in 10.0 mi SSW 5.8 mph - N/A   Clear
8:15 PM 58.5 °F - 40.5 °F 51% 30.21 in 10.0 mi SSW 4.6 mph - N/A   Clear
8:35 PM 57.0 °F - 40.6 °F 54% 30.21 in 10.0 mi South 5.8 mph - N/A   Clear
8:55 PM 55.8 °F - 40.1 °F 56% 30.21 in 10.0 mi South 5.8 mph - N/A   Clear
9:15 PM 54.7 °F - 39.6 °F 57% 30.22 in 10.0 mi South 5.8 mph - N/A   Clear
9:35 PM 54.3 °F - 39.2 °F 57% 30.23 in 10.0 mi South 6.9 mph - N/A   Clear
9:55 PM 53.6 °F - 39.2 °F 58% 30.23 in 10.0 mi South 5.8 mph - N/A   Clear
10:15 PM 53.1 °F - 39.0 °F 59% 30.23 in 10.0 mi South 6.9 mph - N/A   Clear
10:35 PM 52.2 °F - 39.2 °F 61% 30.23 in 10.0 mi South 5.8 mph - N/A   Clear
10:55 PM 51.4 °F - 39.4 °F 63% 30.22 in 10.0 mi South 5.8 mph - N/A   Clear
11:15 PM 50.9 °F - 38.8 °F 63% 30.22 in 10.0 mi South 5.8 mph - N/A   Clear
11:35 PM 50.7 °F - 38.5 °F 63% 30.22 in 10.0 mi South 5.8 mph - N/A   Clear
11:55 PM 50.5 °F - 38.3 °F 63% 30.22 in 10.0 mi South 6.9 mph - N/A   Clear